{"data":{"norad_id":43529,"epoch":"2026-09-20T04:13:00.580224Z","epoch_age_seconds":82823,"freshness":"FRESH","line1":"1 43529U 18056A   26263.17570116  .00001012  00000+0  87611-4 0  9990","line2":"2 43529  98.1379  63.8035 0021808 159.3599 200.8508 14.99421680446154","mean_motion":14.9942168,"eccentricity":0.0021808,"inclination_deg":98.1379,"raan_deg":63.8035,"arg_perigee_deg":159.3599,"mean_anomaly_deg":200.8508,"bstar":8.7611e-5,"rev_number":44615,"period_min":96.037026755542,"perigee_km":553.53238612225,"apogee_km":583.83163191198,"semimajor_km":6946.8190090171,"source":"CELESTRAK","updated_at":"2026-09-20T09:00:14.352422Z"}}